Location: Newark
(44.9861°N, 0.2536°E)
Time: 19:45:36
(UTC+00:00)

HuskySat-1 - Pass Details

Date: 13 July 2020
Orbit: 457 x 471 km, 51.6° (Epoch: 11 August)

Event Time Altitude Azimuth Distance (km) Brightness Sun altitude
Exits shadow 00:16:14 55° 34° (NE) 560 ? -23.2°
Drops below altitude 10° 00:19:14 10° 58° (ENE) 1,612 ? -23.1°
Sets 00:21:23 0° 60° (ENE) 2,487 ? -23.1°
